| time (UTC) | temp F | wind direction | speed MPH | gust MPH | rain 1hr in | rain 24hr in | rain mn in | humidity % | barometer mb |
| 20260503030047 | 61 | 327 | 0.0 | 0.0 | 0.00 | 0.00 | 0.00 | 34 | 1011.8 |
| 20260503024505 | 62 | 327 | 0.0 | 0.0 | 0.00 | 0.00 | 0.00 | 31 | 1011.8 |
| 20260503023050 | 64 | 328 | 0.0 | 0.0 | 0.00 | 0.00 | 0.00 | 30 | 1011.7 |
| 20260503021540 | 66 | 328 | 0.0 | 0.0 | 0.00 | 0.00 | 0.00 | 27 | 1011.7 |
| 20260503020027 | 67 | 328 | 0.0 | 0.0 | 0.00 | 0.00 | 0.00 | 25 | 1011.5 |
| 20260503014607 | 68 | 328 | 1.0 | 0.0 | 0.00 | 0.00 | 0.00 | 24 | 1011.5 |
| 20260503013054 | 68 | 327 | 0.0 | 0.0 | 0.00 | 0.00 | 0.00 | 25 | 1011.5 |
| 20260503011551 | 69 | 327 | 1.0 | 0.0 | 0.00 | 0.00 | 0.00 | 24 | 1011.6 |
| 20260503010033 | 70 | 327 | 0.0 | 0.0 | 0.00 | 0.00 | 0.00 | 23 | 1011.5 |
| 20260503004539 | 71 | 325 | 1.0 | 0.0 | 0.00 | 0.00 | 0.00 | 21 | 1011.5 |
| 20260503003032 | 72 | 325 | 1.0 | 0.0 | 0.00 | 0.00 | 0.00 | 20 | 1011.4 |
| 20260503001515 | 72 | 327 | 2.0 | 0.0 | 0.00 | 0.00 | 0.00 | 20 | 1011.5 |
| 20260502234511 | 73 | 215 | 2.0 | 0.0 | 0.00 | 0.00 | 0.00 | 17 | 1011.9 |
| 20260502233103 | 74 | 207 | 1.0 | 0.0 | 0.00 | 0.00 | 0.00 | 16 | 1011.9 |
| 20260502231546 | 73 | 207 | 1.0 | 0.0 | 0.00 | 0.00 | 0.00 | 17 | 1012.3 |
| 20260502230024 | 73 | 207 | 2.0 | 0.0 | 0.00 | 0.00 | 0.00 | 16 | 1012.5 |
| 20260502224603 | 73 | 207 | 1.0 | 0.0 | 0.00 | 0.00 | 0.00 | 16 | 1013.0 |
| 20260502223050 | 74 | 211 | 2.0 | 0.0 | 0.00 | 0.00 | 0.00 | 17 | 1013.1 |
| 20260502221538 | 73 | 201 | 3.0 | 0.0 | 0.00 | 0.00 | 0.00 | 15 | 1013.2 |
| 20260502214529 | 73 | 200 | 4.0 | 0.0 | 0.00 | 0.00 | 0.00 | 14 | 1013.9 |
| 20260502213039 | 73 | 217 | 5.0 | 0.0 | 0.00 | 0.00 | 0.00 | 15 | 1013.9 |
| 20260502211525 | 73 | 188 | 4.0 | 0.0 | 0.00 | 0.00 | 0.00 | 15 | 1014.3 |
| 20260502210101 | 72 | 200 | 4.0 | 0.0 | 0.00 | 0.00 | 0.00 | 15 | 1014.6 |
| 20260502204549 | 71 | 209 | 5.0 | 0.0 | 0.00 | 0.00 | 0.00 | 15 | 1014.7 |
| 20260502203104 | 71 | 190 | 5.0 | 0.0 | 0.00 | 0.00 | 0.00 | 16 | 1015.1 |
| 20260502201539 | 71 | 227 | 5.0 | 0.0 | 0.00 | 0.00 | 0.00 | 17 | 1015.3 |
| 20260502200020 | 71 | 210 | 4.0 | 0.0 | 0.00 | 0.00 | 0.00 | 18 | 1015.6 |
| 20260502194600 | 70 | 203 | 3.0 | 0.0 | 0.00 | 0.00 | 0.00 | 19 | 1015.5 |
| 20260502193033 | 70 | 213 | 4.0 | 0.0 | 0.00 | 0.00 | 0.00 | 19 | 1016.0 |
| 20260502191522 | 69 | 204 | 5.0 | 0.0 | 0.00 | 0.00 | 0.00 | 21 | 1016.1 |
| 20260502190015 | 69 | 215 | 4.0 | 0.0 | 0.00 | 0.00 | 0.00 | 21 | 1016.4 |
| 20260502184548 | 70 | 268 | 4.0 | 0.0 | 0.00 | 0.00 | 0.00 | 19 | 1016.4 |
| 20260502183043 | 69 | 213 | 3.0 | 0.0 | 0.00 | 0.00 | 0.00 | 20 | 1016.7 |
| 20260502181512 | 68 | 203 | 4.0 | 0.0 | 0.00 | 0.00 | 0.00 | 18 | 1016.8 |
| 20260502163016 | 64 | 225 | 1.0 | 0.0 | 0.00 | 0.00 | 0.00 | 28 | 1017.6 |
| 20260502161603 | 62 | 225 | 1.0 | 0.0 | 0.00 | 0.00 | 0.00 | 29 | 1017.7 |
| 20260502151607 | 58 | 225 | 0.0 | 0.0 | 0.00 | 0.00 | 0.00 | 33 | 1018.1 |
| 20260502123042 | 42 | 225 | 0.0 | 0.0 | 0.00 | 0.00 | 0.00 | 55 | 1018.1 |
| 20260502121541 | 42 | 225 | 0.0 | 0.0 | 0.00 | 0.00 | 0.00 | 55 | 1018.0 |
| 20260502114521 | 42 | 225 | 0.0 | 0.0 | 0.00 | 0.00 | 0.00 | 54 | 1018.0 |
| 20260502113009 | 43 | 225 | 0.0 | 0.0 | 0.00 | 0.00 | 0.00 | 54 | 1018.1 |
| 20260502111606 | 43 | 225 | 0.0 | 0.0 | 0.00 | 0.00 | 0.00 | 54 | 1018.0 |
| 20260502110044 | 43 | 225 | 0.0 | 0.0 | 0.00 | 0.00 | 0.00 | 53 | 1017.9 |
| 20260502104539 | 43 | 225 | 0.0 | 0.0 | 0.00 | 0.00 | 0.00 | 53 | 1017.9 |
| 20260502103029 | 44 | 225 | 0.0 | 0.0 | 0.00 | 0.00 | 0.00 | 51 | 1018.0 |
| 20260502101515 | 45 | 225 | 0.0 | 0.0 | 0.00 | 0.00 | 0.00 | 49 | 1017.7 |
| 20260502091516 | 44 | 225 | 0.0 | 0.0 | 0.00 | 0.00 | 0.00 | 52 | 1017.6 |
| 20260502071520 | 46 | 228 | 0.0 | 0.0 | 0.00 | 0.00 | 0.00 | 54 | 1017.9 |
| 20260502064556 | 46 | 228 | 0.0 | 0.0 | 0.00 | 0.00 | 0.00 | 54 | 1017.6 |
| 20260502063032 | 46 | 228 | 0.0 | 0.0 | 0.00 | 0.00 | 0.00 | 53 | 1017.6 |
| 20260502061614 | 47 | 228 | 0.0 | 0.0 | 0.00 | 0.00 | 0.00 | 53 | 1017.5 |
| 20260502060050 | 48 | 228 | 0.0 | 0.0 | 0.00 | 0.00 | 0.00 | 53 | 1017.4 |
| 20260502054534 | 48 | 227 | 0.0 | 0.0 | 0.00 | 0.00 | 0.00 | 52 | 1017.4 |
| 20260502053015 | 48 | 228 | 0.0 | 0.0 | 0.00 | 0.00 | 0.00 | 54 | 1017.3 |
| 20260502051512 | 48 | 227 | 0.0 | 0.0 | 0.00 | 0.00 | 0.00 | 55 | 1017.3 |
| 20260502050047 | 48 | 227 | 0.0 | 0.0 | 0.00 | 0.00 | 0.00 | 54 | 1017.1 |
| 20260502044537 | 49 | 227 | 0.0 | 0.0 | 0.00 | 0.00 | 0.00 | 53 | 1017.0 |
| 20260502043104 | 49 | 227 | 0.0 | 0.0 | 0.00 | 0.00 | 0.00 | 52 | 1017.0 |
| 20260502041606 | 49 | 228 | 0.0 | 0.0 | 0.00 | 0.00 | 0.00 | 53 | 1017.0 |
| 20260502040054 | 50 | 227 | 0.0 | 0.0 | 0.00 | 0.00 | 0.00 | 50 | 1016.9 |
| 20260502034538 | 51 | 228 | 0.0 | 0.0 | 0.00 | 0.00 | 0.00 | 49 | 1016.7 |
| 20260502033019 | 52 | 228 | 0.0 | 0.0 | 0.00 | 0.00 | 0.00 | 46 | 1016.5 |
| 20260502031507 | 53 | 228 | 0.0 | 0.0 | 0.00 | 0.00 | 0.00 | 43 | 1016.4 |